Regional Weather Roundup
Issued by NWS

Home | Current Version | Previous Version | Text Only | Print | Product List | Glossary Off
Versions: 1 2 3 4 5 6 7 8 9 10 11 12 13 14 15 16 17 18 19 20 21 22 23 24 25 26 27 28 29 30 31 32 33 34 35 36 37 38 39 40 41 42 43 44 45 46 47 48 49 50

000
ASUS43 KFSD 162010
RWRSD

WEATHER ROUNDUP FOR SOUTH DAKOTA
NATIONAL WEATHER SERVICE SIOUX FALLS SD
200 PM CST THU NOV 16 2017

NOTE: "FAIR" INDICATES FEW OR NO CLOUDS BELOW 12,000 FEET WITH NO
SIGNIFICANT WEATHER AND/OR OBSTRUCTIONS TO VISIBILITY.


SDZ001>005-009-010-012>017-162100-
NORTHWEST AND NORTH CENTRAL SOUTH DAKOTA

CITY           SKY/WX    TMP DP  RH WIND       PRES   REMARKS
BUFFALO          N/A     34  24  67 SE7       29.45F WCI  28
FAITH            N/A     44  29  55 SE15      29.55F
MOBRIDGE       CLOUDY    43  27  53 S26G33    29.60F
$$

SDZ012>016-024>037-041>051-057-063-072>074-162100-
SOUTHWEST AND SOUTH CENTRAL SOUTH DAKOTA

CITY           SKY/WX    TMP DP  RH WIND       PRES   REMARKS
RAPID CTY ARPT CLOUDY    72  27  18 W15G23    29.53F
PIERRE         CLOUDY    52  31  44 SE17G26   29.59F
CUSTER         CLOUDY    61  22  22 W22G37    29.61F
ELLSWORTH AFB  CLOUDY    72  28  19 W20G26    29.51
PHILIP         CLOUDY    67  29  24 SW7       29.54F
PINE RIDGE     SUNNY     75  25  15 W16G26    29.61S
SPEARFISH      FAIR      64  27  24 SW31G44   29.50F
WINNER         FAIR      60  31  33 S29G45    29.63F
$$

SDZ004>011-016>023-039-040-162100-
NORTHEAST SOUTH DAKOTA

CITY           SKY/WX    TMP DP  RH WIND       PRES   REMARKS
ABERDEEN       NOT AVBL
WATERTOWN      CLOUDY    32  23  69 SE20G29   29.83F WCI  20
BROOKINGS      CLOUDY    31  24  75 SE24      29.90F WCI  17
SISSETON         N/A     28  23  81 SE25G35   29.88F WCI  13
$$

SDZ017-020-022-023-036>040-048>070-162100-
SOUTHEAST SOUTH DAKOTA

CITY           SKY/WX    TMP DP  RH WIND       PRES   REMARKS
SIOUX FALLS    CLOUDY    37  23  56 SE21      29.94F
HURON          CLOUDY    37  23  56 SE22G38   29.77F
CHAMBERLAIN    CLOUDY    55  32  42 S24G32    29.68F
MITCHELL       CLOUDY    39  24  55 SE28G38   29.81F
YANKTON        CLOUDY    45  26  47 SE24G30   29.88F
$$

ABBREVIATIONS USED IN REMARKS
   TC - TEMPERATURE IN CELSIUS
  WCI - WIND CHILL INDEX
   HX - HEAT INDEX
  VSB - VISIBILITY





USA.gov is the U.S. government's official web portal to all federal, state and local government web resources and services.